Regional Weather Roundup
Issued by NWS Binghamton, NY

Current Version | Previous Version | Text Only | Print | Product List | Glossary On
Versions: 1 2 3 4 5 6 7 8 9 10 11 12 13 14 15 16 17 18 19 20 21 22 23 24 25 26 27 28 29 30 31 32 33 34 35 36 37 38 39 40 41 42 43 44 45 46 47 48 49 50
000
ASUS41 KBGM 240310
RWRBGM

REGIONAL WEATHER ROUNDUP
NATIONAL WEATHER SERVICE BINGHAMTON NY
1100 PM EDT TUE JUL 23 2019

Note: "fair" indicates few or no clouds below 12,000 feet with no
significant weather and/or obstructions to visibility.

* = Station(s) that does not report precipitation, such as rain,
snow, etc, also no thunder or fog.

NYZ009-015>018-022>025-036-037-044>046-055>057-062-240400
...Central New York...

CITY           SKY/WX    TMP DP  RH WIND       PRES   REMARKS
Binghamton     NOT AVBL
Cortland       FAIR      57  55  94 CALM      29.98S
Dansville      FAIR      61  59  93 CALM      29.98S
Elmira         FAIR      60  59  96 W3        29.96S
Endicott       CLOUDY    63  63 100 CALM      29.95S
Ithaca         FAIR      59  59 100 E5        29.97F
Hamilton       CLEAR     57  57 100 CALM      29.98R
Hornell        MOCLDY    61  59  94 CALM      30.03R
Monticello     FAIR      63  62  97 CALM      29.97S
Norwich        CLEAR     59  55  88 CALM      29.97S
Oneonta        CLEAR     63  54  72 CALM      29.98S
Penn Yan       FAIR      62  60  93 SW5       29.97S
Rome           FAIR      63  59  87 N3        29.96R
Seneca Falls   CLEAR     63  59  88 CALM      29.96S
Sidney         CLEAR     57  57 100 CALM      29.97R
Skaneateles    FAIR      59  57  94 CALM      29.97S
Syracuse       FAIR      63  56  78 CALM      29.95S
$$

PAZ038>040-043-044-047-048-072-240400
...Northeast Pennsylvania...

CITY           SKY/WX    TMP DP  RH WIND       PRES   REMARKS
Hazleton       FAIR      61  59  94 CALM      29.99S
Scranton       FAIR      66  60  81 E6        29.94R
Towanda        CLEAR     63  61  94 CALM      29.96F
$$
&&
KEY
WCI = Wind Chill Index
VSB = Visibility
HX  = Heat Index
$$



USA.gov is the U.S. government's official web portal to all federal, state and local government web resources and services.